SQ2ODE-13 Weather Reports


time (UTC)temp
C
wind
direction
speed
KPH
gust
KPH
rain 1hr
cm
rain 24hr
cm
rain mn
cm
humidity
%
barometer
mb
20260506135109 13 33 9.7 12.9 0.00 0.00 0.00 80 1001.3
20260506134107 13 16 11.3 17.7 0.00 0.00 0.00 77 1001.3
20260506133102 14 3 8.0 12.9 0.00 0.00 0.00 76 1001.1
20260506132058 15 45 9.7 14.5 0.00 0.00 0.00 75 1001.0
20260506131055 15 30 8.0 12.9 0.00 0.00 0.00 73 1001.0
20260506130052 15 37 8.0 12.9 0.00 0.00 0.00 76 1001.0
20260506125048 14 25 8.0 12.9 0.00 0.00 0.00 77 1001.1
20260506124045 14 7 6.4 9.7 0.00 0.00 0.00 77 1001.3
20260506123041 14 8 8.0 11.3 0.00 0.00 0.00 77 1001.1
20260506122037 14 348 11.3 14.5 0.00 0.00 0.00 77 1001.0
20260506121034 14 344 9.7 14.5 0.00 0.00 0.00 76 1001.0
20260506120035 15 1 9.7 12.9 0.00 0.00 0.00 75 1000.9
20260506115026 15 352 11.3 17.7 0.00 0.00 0.00 72 1000.8
20260506114023 15 356 9.7 14.5 0.00 0.00 0.00 72 1000.7
20260506113120 15 15 9.7 14.5 0.00 0.00 0.00 70 1000.5
20260506112116 16 16 9.7 17.7 0.00 0.00 0.00 69 1000.3
20260506111113 15 18 12.9 17.7 0.00 0.00 0.00 70 1000.4
20260506110108 15 37 11.3 20.9 0.00 0.00 0.00 70 1000.4
20260506105105 15 27 11.3 17.7 0.00 0.00 0.00 71 1000.4
20260506104101 15 28 14.5 22.5 0.00 0.00 0.00 72 1000.3
20260506103058 14 17 9.7 16.1 0.00 0.00 0.00 73 1000.5
20260506102055 14 85 6.4 14.5 0.00 0.00 0.00 73 1000.7
20260506101051 14 54 6.4 14.5 0.00 0.00 0.00 73 1000.6
20260506100047 14 45 9.7 19.3 0.00 0.00 0.00 74 1000.5
20260506095043 13 65 11.3 17.7 0.00 0.00 0.00 75 1000.3
20260506094045 13 63 11.3 17.7 0.00 0.00 0.00 75 1000.5
20260506093036 13 67 16.1 22.5 0.00 0.00 0.00 74 1000.4
20260506092053 13 45 11.3 17.7 0.00 0.00 0.00 72 1000.7
20260506091030 13 60 9.7 16.1 0.00 0.00 0.00 72 1000.6
20260506090026 13 52 12.9 19.3 0.00 0.00 0.00 71 1000.7
20260506085023 14 69 11.3 17.7 0.00 0.00 0.00 71 1000.7
20260506084119 14 45 11.3 19.3 0.00 0.00 0.00 71 1000.5
20260506083115 14 90 11.3 16.1 0.00 0.00 0.00 71 1000.6
20260506082112 13 45 12.9 20.9 0.00 0.00 0.00 73 1000.5
20260506081108 13 62 11.3 16.1 0.00 0.00 0.00 74 1000.5
20260506080104 13 92 11.3 17.7 0.00 0.00 0.00 74 1000.5
20260506073054 13 90 14.5 24.1 0.00 0.00 0.00 75 1000.1
20260506072049 12 54 14.5 25.7 0.00 0.00 0.00 79 1000.2
20260506071046 12 76 16.1 22.5 0.00 0.00 0.00 81 1000.5
20260506062028 10 52 17.7 27.4 0.00 0.00 0.00 90 1001.0
20260506061024 10 51 14.5 24.1 0.00 0.00 0.00 90 1001.2
20260506060121 9 53 17.7 25.7 0.00 0.00 0.00 91 1001.3
20260506051143 8 24 16.1 27.4 0.00 0.00 0.00 95 1001.6
20260506045100 8 45 9.7 19.3 0.00 0.00 0.00 97 1002.0
20260506044052 8 45 12.9 16.1 0.00 0.00 0.00 98 1002.2
20260506043048 8 42 11.3 19.3 0.00 0.00 0.00 98 1002.2
20260506042044 8 108 16.1 20.9 0.00 0.00 0.00 99 1002.3
20260506041041 8 45 12.9 17.7 0.00 0.00 0.00 99 1002.6
20260506040037 8 45 12.9 17.7 0.00 0.00 0.00 99 1002.4
20260506035034 8 34 12.9 17.7 0.00 0.00 0.00 99 1002.4
20260506034029 8 50 9.7 17.7 0.00 0.00 0.00 99 1002.4
20260506033031 8 60 12.9 24.1 0.00 0.00 0.00 99 1002.5
20260506032023 8 70 14.5 22.5 0.00 0.00 0.00 99 1002.5
20260506031119 8 38 12.9 20.9 0.00 0.00 0.00 99 1002.6
20260506030116 8 31 14.5 20.9 0.00 0.00 0.00 99 1002.7
20260506025152 8 37 11.3 20.9 0.00 0.00 0.00 99 1002.8
20260506024128 8 43 14.5 24.1 0.00 0.00 0.00 99 1002.8
20260506023126 8 50 14.5 20.9 0.00 0.00 0.00 99 1003.0
20260506022101 8 27 11.3 19.3 0.00 0.00 0.00 99 1003.1
20260506021057 8 56 16.1 24.1 0.00 0.00 0.00 99 1003.1
20260506020054 8 54 12.9 24.1 0.00 0.00 0.00 99 1003.2
20260506015051 8 207 11.3 17.7 0.00 0.00 0.00 99 1003.4
20260506014047 -17 0.0 0.0 0.00 0.00 0.00 1003.4
20260506013103 -17 0.0 0.0 0.00 0.00 0.00 1003.2
20260506012040 -17 0.0 0.0 0.00 0.00 0.00 1003.2
20260506011036 -17 0.0 0.0 0.00 0.00 0.00 1003.3
20260506010032 -17 0.0 0.0 0.00 0.00 0.00 1003.4
20260506005049 -17 0.0 0.0 0.00 0.00 0.00 1003.5
20260506004046 -17 0.0 0.0 0.00 0.00 0.00 1003.5
20260506003021 -17 0.0 0.0 0.00 0.00 0.00 1003.9
20260506002139 -17 0.0 0.0 0.00 0.00 0.00 1003.9
20260506001114 9 68 8.0 11.3 0.00 0.00 0.00 99 1003.9
20260506000111 9 45 11.3 22.5 0.00 0.00 0.00 99 1004.2
20260505235107 9 39 11.3 20.9 0.00 0.00 0.00 99 1004.3
20260505234109 9 44 11.3 20.9 0.00 0.00 0.00 99 1004.3
20260505233120 9 48 11.3 17.7 0.00 0.00 0.00 99 1004.4
20260505232057 9 32 9.7 16.1 0.00 0.00 0.00 99 1004.2
20260505231113 9 41 12.9 24.1 0.00 0.00 0.00 99 1004.2
20260505230131 8 38 9.7 16.1 0.00 0.00 0.00 99 1004.1
20260505225046 8 63 9.7 20.9 0.00 0.00 0.00 99 1004.1
20260505224042 8 31 11.3 17.7 0.00 0.00 0.00 99 1004.2
20260505223100 8 45 12.9 17.7 0.00 0.00 0.00 99 1004.3
20260505222035 8 53 12.9 19.3 0.00 0.00 0.00 99 1004.3
20260505221031 8 35 9.7 17.7 0.00 0.00 0.00 99 1004.4
20260505220027 9 19 9.7 17.7 0.00 0.00 0.00 99 1004.5
20260505215025 9 44 11.3 17.7 0.00 0.00 0.00 99 1004.4
20260505214121 9 71 12.9 24.1 0.00 0.00 0.00 98 1004.4
20260505213117 9 61 12.9 17.7 0.00 0.00 0.00 98 1004.4
20260505212133 9 78 11.3 19.3 0.00 0.00 0.00 98 1004.5
20260505211109 9 45 9.7 16.1 0.00 0.00 0.00 98 1004.6
20260505210108 9 39 12.9 20.9 0.00 0.00 0.00 98 1004.6
20260505205102 9 36 9.7 17.7 0.00 0.00 0.00 98 1004.6
20260505204059 10 31 8.0 12.9 0.00 0.00 0.00 98 1004.7
20260505203116 10 57 8.0 14.5 0.00 0.00 0.00 98 1004.8
20260505202051 10 45 11.3 17.7 0.00 0.00 0.00 98 1004.6
20260505201047 10 44 8.0 17.7 0.00 0.00 0.00 97 1004.7
20260505200105 9 62 8.0 17.7 0.00 0.00 0.00 97 1004.6
20260505195040 9 21 6.4 9.7 0.00 0.00 0.00 97 1004.7
20260505194042 9 68 8.0 12.9 0.00 0.00 0.00 97 1004.6
20260505193033 9 33 9.7 16.1 0.00 0.00 0.00 97 1004.6
20260505192029 9 17 8.0 12.9 0.00 0.00 0.00 96 1004.6
20260505191027 9 59 8.0 12.9 0.00 0.00 0.00 96 1004.4
20260505190043 9 14 8.0 12.9 0.00 0.00 0.00 95 1004.6
20260505185120 10 41 9.7 14.5 0.00 0.00 0.00 95 1004.4
20260505184115 10 45 9.7 14.5 0.00 0.00 0.00 94 1004.3
20260505183112 10 47 9.7 19.3 0.00 0.00 0.00 94 1004.1
20260505182108 10 45 12.9 17.7 0.00 0.00 0.00 93 1004.1
20260505181105 10 52 12.9 17.7 0.00 0.00 0.00 93 1004.1
20260505180121 10 45 11.3 17.7 0.00 0.00 0.00 92 1004.2
20260505175058 10 35 11.3 17.7 0.00 0.00 0.00 92 1004.1
20260505174059 10 50 11.3 17.7 0.00 0.00 0.00 92 1004.1
20260505173050 10 37 12.9 19.3 0.00 0.00 0.00 91 1004.2
20260505172046 10 54 11.3 17.7 0.00 0.00 0.00 91 1004.1
20260505171042 10 43 12.9 19.3 0.00 0.00 0.00 90 1004.3
20260505170039 10 37 12.9 17.7 0.00 0.00 0.00 88 1004.2
20260505165035 10 53 16.1 27.4 0.00 0.00 0.00 87 1004.0
20260505164031 10 48 11.3 22.5 0.00 0.00 0.00 86 1004.1
20260505163028 10 19 11.3 20.9 0.00 0.00 0.00 85 1004.2
20260505162025 10 45 12.9 22.5 0.00 0.00 0.00 82 1004.2
20260505161021 11 72 12.9 24.1 0.00 0.00 0.00 82 1004.4
20260505160117 11 55 11.3 19.3 0.00 0.00 0.00 84 1004.3
20260505153147 12 46 11.3 19.3 0.00 0.00 0.00 83 1004.7
20260505152103 12 22 11.3 17.7 0.00 0.00 0.00 81 1004.7
20260505151100 12 8 14.5 24.1 0.00 0.00 0.00 79 1004.9
20260505150121 13 8 11.3 20.9 0.00 0.00 0.00 79 1004.8